Regional Weather Roundup
Issued by NWS

Home | Current Version | Previous Version | Text Only | Print | Product List | Glossary Off
Versions: 1 2 3 4 5 6 7 8 9 10 11 12 13 14 15 16 17 18 19 20 21 22 23 24 25 26 27 28 29 30 31 32 33 34 35 36 37 38 39 40 41 42 43 44 45 46 47 48 49 50

843
ASUS44 KLIX 282305
RWRLA
LOUISIANA WEATHER ROUNDUP
NATIONAL WEATHER SERVICE NEW ORLEANS LA
600 PM CDT MON JUL 28 2014

NOTE: "FAIR" INDICATES FEW OR NO CLOUDS BELOW 12,000 FEET WITH NO
      SIGNIFICANT WEATHER AND/OR OBSTRUCTIONS TO VISIBILITY.
      SKY/WX - SKY CONDITION AND SIGNIFICANT WEATHER.
      TMP - AIR TEMPERATURE.    DP   - DEWPOINT TEMPERATURE.
      RH  - RELATIVE HUMIDITY.  PRES - PRESSURE.
      HX  - HEAT INDEX.         WCI  - WIND CHILL INDEX.

*  THESE STATIONS ARE NOT NWS OR FAA STATIONS AND ARE NOT UNDER
   NWS QUALITY CONTROL.

LAZ040-048-061>063-065-066-069-290000-
SOUTHEAST LOUISIANA

CITY           SKY/WX    TMP DP  RH WIND       PRES   REMARKS
N.O. AUDUBON     N/A     94  76  55 MISG        N/A  HX 105
N.O. INTL ARPT PTSUNNY   92  73  53 W12       29.98F HX 100
N.O. LAKEFRONT MOSUNNY   90  77  65 W13       29.98F HX 103
N.O. DOWNTOWN* FAIR      91  72  52 W5        29.98F HX  98
SLIDELL        PTSUNNY   90  77  65 VRB5      29.96F HX 103
BATON ROUGE    PTSUNNY   89  76  65 W10       29.98F HX 100
BOOTHVILLE     MOSUNNY   87  79  76 SW14G23   29.99F HX 101
BELLE CHASSE   PTSUNNY   91  72  53 W8        29.97F HX  98
BOGALUSA*      FAIR      92  76  60 NW6       29.98F HX 104
GALLIANO*      NOT AVBL
NEW ROADS*     FAIR      86  76  72 MISG      29.99S HX  97
GONZALES*      FAIR      89  79  72 SW3       29.98F HX 103
HAMMOND*       MOSUNNY   93  73  52 W7        29.99F HX 102
HOUMA*         NOT AVBL
PORT FOURCHON* CLEAR     88  79  74 W16       30.01F HX 102

$$

LAZ041-044-053-054-290000-
SOUTHWEST LOUISIANA

CITY           SKY/WX    TMP DP  RH WIND       PRES   REMARKS
LAKE CHARLES   SUNNY     93  72  50 W5        30.00F HX 101
LAFAYETTE      NOT AVBL
PATTERSON      PTSUNNY   88  79  74 SW9       30.04F HX 102
SALT POINT       N/A     90  79  70 VRB6      30.00F HX 106
NEW IBERIA     PTSUNNY   89  76  65 W6        30.00F HX 100
CHENAULT AIRPK   N/A     93  70  46 W5        30.00  HX  99

$$

LAZ027-028-290000-
CENTRAL LOUISIANA

CITY           SKY/WX    TMP DP  RH WIND       PRES   REMARKS
FORT POLK      PTSUNNY   90  73  57 W7        30.00F HX  98
ALEXANDRIA INT PTSUNNY   86  74  67 NE12G21   29.98S
ALEXANDRIA     LGT RAIN  79  73  82 NW8       30.01R

$$

LAZ001-002-290000-
NORTHWEST LOUISIANA

CITY           SKY/WX    TMP DP  RH WIND       PRES   REMARKS
SHREVEPORT     PTSUNNY   91  69  48 N9        30.01F HX  96
BARKSDALE AFB  PTSUNNY   88  69  53 N6        30.02F
DTN SHREVEPORT PTSUNNY   89  68  49 N5        30.01F

$$

LAZ014-016-290000-
NORTHEAST LOUISIANA

CITY           SKY/WX    TMP DP  RH WIND       PRES   REMARKS
MONROE         SUNNY     90  68  48 NE6       30.00F
TALLULAH       SUNNY     88  69  53 VRB6      30.00F

$$




USA.gov is the U.S. government's official web portal to all federal, state and local government web resources and services.